Weather History for Knox, IN

Change the Weather History Date:

Friday, November 2, 2012

  Actual Average (KVPZ) Record (KVPZ)
Temperature  
Mean Temperature 40 °F 47 °F  
Max Temperature 93 °F 56 °F 70 °F (2008)
Min Temperature 34 °F 38 °F 23 °F (2006)
Degree Days  
Heating Degree Days 25 18  
Month to date heating degree days 36  
Since 1 July heating degree days 566  
Cooling Degree Days 0 0  
Month to date cooling degree days 0  
Year to date cooling degree days 713  
Moisture  
Dew Point 35 °F    
Average Humidity 83    
Maximum Humidity 97    
Minimum Humidity 52    
Precipitation  
Precipitation 0.00 in 0.12 in 0.66 in (2001)
Month to date precipitation 0.26  
Year to date precipitation 32.26  
Sea Level Pressure  
Sea Level Pressure 30.01 in    
Wind  
Wind Speed 5 mph (NNW)    
Max Wind Speed 16 mph    
Max Gust Speed 21 mph    
Visibility 10 miles    
Events      
T = Trace of Precipitation, MM = Missing Value Source: NWS Daily Summary

Daily Weather History Graph

Daily Weather History Graph

Search for Another Location

Airport:

Trip Planner

Search our weather history database for the weather conditions in past years. The results will help you decide how hot, cold, wet, or windy it might be!

Date:

Astronomy

Nov. 02, 2012 Rise Set
Actual Time 7:19 AM CDT 5:39 PM CDT
Civil Twilight 6:51 AM CDT 6:08 PM CDT
Nautical Twilight 6:18 AM CDT 6:41 PM CDT
Astronomical Twilight 5:46 AM CDT 7:13 PM CDT
Moon 8:25 PM CDT (11/2) 10:41 AM CDT (11/2)
Length of Visible Light 11h 17m
Length of Day
10h 20m
Waning Gibbous, 87% of the Moon is Illuminated
Nov 2
Waning Gibbous
Nov 6
Last Quarter
Nov 13
New
Nov 20
First Quarter
Nov 28
Full

Hourly Weather History & Observations

Time (CDT) Temp. Windchill Dew Point Humidity Pressure Visibility Wind Dir Wind Speed Gust Speed Precip Events Conditions
12:15 AM 34.3 °F - 31.6 °F 90% 29.87 in 10.0 mi Calm Calm - N/A   Overcast
12:35 AM 35.1 °F 31.0 °F 32.2 °F 89% 29.86 in 10.0 mi NW 4.6 mph - N/A   Overcast
12:55 AM 37.4 °F 34.9 °F 33.8 °F 87% 29.87 in 10.0 mi WNW 3.5 mph - N/A   Overcast
1:15 AM 36.7 °F - 33.8 °F 89% 29.87 in 10.0 mi Calm Calm - N/A   Overcast
1:35 AM 36.3 °F - 34.0 °F 91% 29.87 in 10.0 mi Calm Calm - N/A   Overcast
1:55 AM 37.0 °F 33.3 °F 34.7 °F 91% 29.87 in 10.0 mi WNW 4.6 mph - N/A   Overcast
2:15 AM 39.6 °F 35.4 °F 35.1 °F 84% 29.88 in 10.0 mi NW 5.8 mph - N/A   Overcast
2:35 AM 40.3 °F 35.5 °F 35.4 °F 83% 29.89 in 10.0 mi North 6.9 mph - N/A   Overcast
2:55 AM 41.2 °F 36.6 °F 36.1 °F 82% 29.89 in 10.0 mi North 6.9 mph - N/A   Overcast
3:15 AM 40.5 °F 36.5 °F 36.0 °F 84% 29.90 in 10.0 mi North 5.8 mph - N/A   Overcast
3:35 AM 39.6 °F 36.3 °F 36.0 °F 87% 29.90 in 10.0 mi North 4.6 mph - N/A   Overcast
3:55 AM 39.2 °F 35.9 °F 35.8 °F 88% 29.90 in 10.0 mi NNE 4.6 mph - N/A   Overcast
4:15 AM 38.5 °F 36.1 °F 34.7 °F 86% 29.91 in 10.0 mi ENE 3.5 mph - N/A   Mostly Cloudy
4:35 AM 38.5 °F - 35.1 °F 87% 29.91 in 10.0 mi Calm Calm - N/A   Overcast
5:15 AM 39.4 °F - 35.8 °F 87% 29.92 in 10.0 mi Calm Calm - N/A   Overcast
5:35 AM 38.8 °F - 35.8 °F 89% 29.92 in 10.0 mi Calm Calm - N/A   Overcast
5:55 AM 38.7 °F 36.3 °F 36.0 °F 90% 29.93 in 10.0 mi NNW 3.5 mph - N/A   Overcast
6:15 AM 38.8 °F - 36.0 °F 89% 29.94 in 10.0 mi Calm Calm - N/A   Overcast
6:35 AM 38.8 °F - 35.6 °F 88% 29.94 in 10.0 mi Calm Calm - N/A   Mostly Cloudy
6:55 AM 37.0 °F 34.5 °F 34.7 °F 91% 29.95 in 10.0 mi WNW 3.5 mph - N/A   Mostly Cloudy
7:15 AM 37.8 °F 33.3 °F 34.3 °F 87% 29.96 in 10.0 mi NNW 5.8 mph - N/A   Overcast
7:35 AM 36.5 °F 31.0 °F 32.4 °F 85% 29.97 in 10.0 mi NW 6.9 mph - N/A   Mostly Cloudy
7:55 AM 37.2 °F 34.7 °F 32.7 °F 84% 29.98 in 10.0 mi NW 3.5 mph - N/A   Overcast
9:15 AM 41.9 °F 35.9 °F 32.4 °F 69% 30.01 in 10.0 mi NNW 10.4 mph - N/A   Mostly Cloudy
9:35 AM 42.6 °F 36.8 °F 31.6 °F 65% 30.01 in 10.0 mi NNW 10.4 mph - N/A   Mostly Cloudy
9:55 AM 44.1 °F 37.1 °F 31.6 °F 62% 30.01 in 10.0 mi NNW 15.0 mph - N/A   Mostly Cloudy
10:15 AM 44.4 °F 37.5 °F 31.1 °F 60% 30.02 in 10.0 mi NNW 15.0 mph 19.6 mph N/A   Scattered Clouds
10:35 AM 44.6 °F 37.8 °F 31.1 °F 59% 30.03 in 10.0 mi NNW 15.0 mph 19.6 mph N/A   Mostly Cloudy
10:55 AM 44.4 °F 39.0 °F 29.8 °F 57% 30.03 in 10.0 mi North 10.4 mph - N/A   Mostly Cloudy
11:15 AM 46.0 °F 39.6 °F 29.8 °F 53% 30.03 in 10.0 mi NNW 15.0 mph 19.6 mph N/A   Scattered Clouds
11:35 AM 46.4 °F 40.7 °F 29.7 °F 52% 30.03 in 10.0 mi North 12.7 mph - N/A   Scattered Clouds
11:55 AM 46.8 °F - 30.6 °F 53% 30.03 in 10.0 mi North 12.7 mph - N/A   Mostly Cloudy
12:15 PM 45.7 °F 38.8 °F 32.2 °F 59% 30.04 in 10.0 mi North 16.1 mph 20.7 mph N/A   Overcast
12:35 PM 43.3 °F 37.2 °F 35.8 °F 75% 30.05 in 10.0 mi NNE 11.5 mph - N/A   Overcast
12:55 PM 43.0 °F 37.2 °F 37.6 °F 81% 30.05 in 10.0 mi NNW 10.4 mph - N/A   Overcast
1:15 PM 42.8 °F 37.0 °F 37.6 °F 82% 30.04 in 10.0 mi NNW 10.4 mph - N/A   Overcast
1:35 PM 43.0 °F 37.7 °F 37.8 °F 82% 30.04 in 10.0 mi NNW 9.2 mph - N/A   Overcast
1:55 PM 44.1 °F 39.5 °F 36.7 °F 75% 30.04 in 10.0 mi NW 8.1 mph - N/A   Overcast
2:15 PM 44.8 °F 39.0 °F 36.9 °F 74% 30.05 in 7.0 mi NNW 11.5 mph - N/A   Overcast
2:35 PM 43.0 °F 37.7 °F 37.9 °F 82% 30.05 in 10.0 mi NNW 9.2 mph - N/A   Overcast
2:55 PM 43.5 °F 38.9 °F 37.0 °F 78% 30.05 in 10.0 mi North 8.1 mph - N/A   Overcast
3:15 PM 43.3 °F 37.7 °F 36.7 °F 77% 30.05 in 10.0 mi NNW 10.4 mph - N/A   Mostly Cloudy
3:35 PM 44.1 °F 38.1 °F 36.9 °F 76% 30.06 in 10.0 mi North 11.5 mph - N/A   Mostly Cloudy
3:55 PM 43.0 °F 38.2 °F 36.9 °F 79% 30.06 in 10.0 mi NNW 8.1 mph - N/A   Overcast
4:15 PM 44.1 °F 38.1 °F 36.7 °F 75% 30.07 in 10.0 mi North 11.5 mph - N/A   Overcast
4:35 PM 43.3 °F 38.6 °F 35.8 °F 75% 30.07 in 10.0 mi North 8.1 mph - N/A   Mostly Cloudy
5:15 PM 41.0 °F 35.2 °F 36.7 °F 85% 30.08 in 10.0 mi NW 9.2 mph - N/A   Mostly Cloudy
5:35 PM 40.5 °F 35.1 °F 37.4 °F 89% 30.08 in 10.0 mi NNW 8.1 mph - N/A   Overcast
5:55 PM 39.6 °F 34.7 °F 36.5 °F 89% 30.09 in 10.0 mi North 6.9 mph - N/A   Mostly Cloudy
6:15 PM 39.0 °F 34.0 °F 36.7 °F 91% 30.09 in 7.0 mi North 6.9 mph - N/A   Mostly Cloudy
6:35 PM 38.1 °F 34.6 °F 36.3 °F 93% 30.09 in 10.0 mi NNE 4.6 mph - N/A   Mostly Cloudy
7:15 PM 38.5 °F 36.1 °F 37.0 °F 95% 30.10 in 10.0 mi NNE 3.5 mph - N/A   Overcast
7:35 PM 38.3 °F 35.9 °F 36.7 °F 94% 30.10 in 10.0 mi North 3.5 mph - N/A   Overcast
7:55 PM 37.9 °F - 36.7 °F 95% 30.10 in 10.0 mi Calm Calm - N/A   Overcast
8:15 PM 37.4 °F - 36.3 °F 96% 30.10 in 10.0 mi Calm Calm - N/A   Mostly Cloudy
8:35 PM 36.7 °F - 35.8 °F 97% 30.10 in 10.0 mi Calm Calm - N/A   Mostly Cloudy
8:55 PM 36.7 °F 34.1 °F 35.8 °F 97% 30.10 in 10.0 mi North 3.5 mph - N/A   Overcast
9:15 PM 36.9 °F - 36.0 °F 97% 30.11 in 10.0 mi Calm Calm - N/A   Mostly Cloudy
9:35 PM 36.9 °F - 35.8 °F 96% 30.12 in 10.0 mi Calm Calm - N/A   Mostly Cloudy
9:55 PM 37.0 °F 34.5 °F 35.8 °F 95% 30.12 in 10.0 mi North 3.5 mph - N/A   Overcast
10:15 PM 37.0 °F 34.5 °F 35.8 °F 95% 30.12 in 10.0 mi North 3.5 mph - N/A   Mostly Cloudy
10:35 PM 36.1 °F 33.5 °F 34.9 °F 95% 30.11 in 10.0 mi North 3.5 mph - N/A   Mostly Cloudy
10:55 PM 35.2 °F 32.4 °F 34.2 °F 96% 30.11 in 10.0 mi NNE 3.5 mph - N/A   Scattered Clouds
11:15 PM 34.9 °F - 33.8 °F 96% 30.13 in 10.0 mi Calm Calm - N/A   Clear
11:35 PM 34.2 °F - 33.3 °F 97% 30.13 in 10.0 mi Calm Calm - N/A   Clear
11:55 PM 34.3 °F - 33.6 °F 97% 30.14 in 10.0 mi Calm Calm - N/A   Clear